This is the latest recevied weather packets stored in our database for station/object AJ7DN. If no packets are shown the sender has not sent any weather packets the latest 10 day(s).
| Time | Temp. | Humidity | Pressure | Rain* | Wind** | Luminosity | Snow |
|---|---|---|---|---|---|---|---|
| 1777764627 | 21.11° C | 62% | 1016.4 hPa | 0 mm | - | 184 W/m² | - |
| 1777764323 | 21.67° C | 60% | 1016.3 hPa | 0 mm | - | 188 W/m² | - |
| 1777764020 | 21.67° C | 61% | 1016.4 hPa | 0 mm | - | 256 W/m² | - |
| 1777763717 | 21.67° C | 59% | 1016.6 hPa | 0 mm | - | 268 W/m² | - |
| 1777763415 | 21.11° C | 60% | 1016.6 hPa | 0 mm | - | 290 W/m² | - |
| 1777763113 | 21.11° C | 61% | 1016.6 hPa | 0 mm | - | 263 W/m² | - |
| 1777762811 | 21.11° C | 61% | 1016.9 hPa | 0 mm | - | 362 W/m² | - |
| 1777762511 | 21.11° C | 62% | 1017 hPa | 0 mm | - | 364 W/m² | - |
| 1777762209 | 20.56° C | 61% | 1016.9 hPa | 0 mm | - | 211 W/m² | - |
| 1777761905 | 20.56° C | 62% | 1016.8 hPa | 0 mm | - | 278 W/m² | - |
| 1777761602 | 21.11° C | 61% | 1017 hPa | 0 mm | - | 308 W/m² | - |
| 1777761300 | 21.11° C | 61% | 1017 hPa | 0 mm | - | 325 W/m² | - |
| 1777760998 | 21.11° C | 61% | 1017.2 hPa | 0 mm | - | 357 W/m² | - |
| 1777760695 | 21.11° C | 61% | 1017.2 hPa | 0 mm | - | 386 W/m² | - |
| 1777760390 | 21.67° C | 59% | 1017.3 hPa | 0 mm | - | 397 W/m² | - |
| 1777760087 | 21.11° C | 61% | 1017.3 hPa | 0 mm | - | 477 W/m² | - |
| 1777759784 | 20.56° C | 63% | 1017.4 hPa | 0 mm | - | 500 W/m² | - |
| 1777759480 | 20.56° C | 63% | 1017.6 hPa | 0 mm | - | 512 W/m² | - |
| 1777759177 | 20° C | 63% | 1017.5 hPa | 0 mm | - | 510 W/m² | - |
| 1777758874 | 20.56° C | 61% | 1017.6 hPa | 0 mm | - | 392 W/m² | - |
| 1777758571 | 20.56° C | 63% | 1017.8 hPa | 0 mm | - | 539 W/m² | - |
| 1777758268 | 20° C | 64% | 1017.5 hPa | 0 mm | - | 460 W/m² | - |
| 1777757965 | 20° C | 64% | 1018 hPa | 0 mm | - | 533 W/m² | - |
| 1777757661 | 20° C | 64% | 1017.9 hPa | 0 mm | - | 631 W/m² | - |
| 1777757360 | 20° C | 63% | 1018 hPa | 0 mm | - | 629 W/m² | - |
* Rain latest hour (hover to see other rain measurements)
** Current wind speed in m/s (hover to see current wind gust speed)